IRIDIUM 147 (43480 NORAD) Tracking and Keplerian Element Data

This shows tracking and keplerian element data for the satellite.

Feedback or suggestion? Click here.




ElementValue
Catalog43480
NameIRIDIUM 147
Epoch Orbit17532
Epoch Day269.77921717
Epoch Year2021
RAAN88.9868
Inclination86.3915
Eccentricity0.0002007
Argument of Perigee82.4193
Mean Anonmoly277.7231
Mean Motion14.34218108
Decay Rate3.4E-07
L11 43480U 18047E 21269.77921717 .00000034 00000-0 51019-5 0 9998
L22 43480 86.3915 88.9868 0002007 82.4193 277.7231 14.34218108175325

Live tracking and technical data element details for IRIDIUM 147 (NORAD 43480). IRIDIUM 147 can be tracked NOW for your location showing map with azimuth and elevation plus other details from your city location.

Track the satellite on the map from your city or location and see movement details for azimuth, elevation, latitude, longitude, range, height, and movement on the map or in text.







IsCatalogInMostPopularTable: catalog: 43480, numindb: 542
Update: records affected: 1



GetName: 43480 IRIDIUM 147

Hit Count: updated at: Tue, 28 Sep 2021 15:59:36 GMT